LNE1385 SEQM-SEGU

Flight info

Callsign LNE1385
Flight time 0h 35m
Altitude 24000
Route TEMOX3B TEMOX TEMOX2
Aircraft A319/M-SDE3FGHIRWY/LB1

Departure

Time 2026-04-27 23:13
Airport Mariscal Sucre International Airport (SEQM)

Arrival

Time 2026-04-27 23:48
Airport José Joaquín de Olmedo International Airport (SEGU)
Time Latitude Longitude Altitude Speed Heading
2026-04-27 22:49 -0.12621 -78.35923 7810 ft 0 kts 268°
2026-04-27 23:00 -0.12621 -78.35908 7812 ft 2 kts 268°
2026-04-27 23:01 -0.12621 -78.35893 7813 ft 2 kts 268°
2026-04-27 23:01 -0.12620 -78.35879 7814 ft 2 kts 268°
2026-04-27 23:01 -0.12620 -78.35864 7815 ft 2 kts 268°
2026-04-27 23:01 -0.12619 -78.35851 7816 ft 0 kts 268°
2026-04-27 23:02 -0.12617 -78.35840 7817 ft 2 kts 233°
2026-04-27 23:02 -0.12605 -78.35832 7817 ft 1 kts 187°
2026-04-27 23:02 -0.12598 -78.35832 7816 ft 1 kts 171°
2026-04-27 23:02 -0.12594 -78.35832 7816 ft 0 kts 176°
2026-04-27 23:06 -0.12591 -78.35832 7816 ft 0 kts 176°
2026-04-27 23:06 -0.12621 -78.35831 7818 ft 8 kts 177°
2026-04-27 23:06 -0.12692 -78.35807 7824 ft 13 kts 117°
2026-04-27 23:07 -0.12692 -78.35704 7832 ft 16 kts 88°
2026-04-27 23:07 -0.12721 -78.35603 7841 ft 15 kts 167°
2026-04-27 23:07 -0.12845 -78.35599 7849 ft 20 kts 178°
2026-04-27 23:07 -0.13010 -78.35590 7858 ft 27 kts 176°
2026-04-27 23:08 -0.13195 -78.35582 7866 ft 22 kts 178°
2026-04-27 23:08 -0.13334 -78.35576 7872 ft 18 kts 179°
2026-04-27 23:08 -0.13463 -78.35571 7877 ft 18 kts 176°
2026-04-27 23:08 -0.13586 -78.35564 7884 ft 16 kts 177°
2026-04-27 23:09 -0.13701 -78.35561 7889 ft 16 kts 178°
2026-04-27 23:09 -0.13815 -78.35555 7894 ft 16 kts 176°
2026-04-27 23:09 -0.13931 -78.35551 7899 ft 17 kts 177°
2026-04-27 23:09 -0.14056 -78.35546 7906 ft 18 kts 177°
2026-04-27 23:10 -0.14191 -78.35539 7911 ft 19 kts 171°
2026-04-27 23:10 -0.14252 -78.35497 7917 ft 2 kts 112°
2026-04-27 23:10 -0.14248 -78.35508 7916 ft 1 kts 111°
2026-04-27 23:10 -0.14247 -78.35512 7915 ft 1 kts 124°
2026-04-27 23:11 -0.14252 -78.35493 7918 ft 15 kts 102°
2026-04-27 23:11 -0.14254 -78.35408 7929 ft 6 kts 83°
2026-04-27 23:11 -0.14249 -78.35389 7931 ft 2 kts 65°
2026-04-27 23:11 -0.14222 -78.35368 7932 ft 4 kts 12°
2026-04-27 23:12 -0.14215 -78.35368 7931 ft 1 kts 359°
2026-04-27 23:12 -0.14144 -78.35369 7927 ft 28 kts 358°
2026-04-27 23:12 -0.13751 -78.35387 7910 ft 93 kts 358°
2026-04-27 23:13 -0.12789 -78.35425 7858 ft 159 kts 357°
2026-04-27 23:13 -0.10874 -78.35519 8456 ft 184 kts 358°
2026-04-27 23:13 -0.09694 -78.35570 9018 ft 185 kts 358°
2026-04-27 23:14 -0.07446 -78.35671 9887 ft 195 kts 358°
2026-04-27 23:14 -0.06007 -78.35740 10201 ft 209 kts 358°
2026-04-27 23:15 -0.01264 -78.37497 10950 ft 254 kts 297°
2026-04-27 23:15 -0.00907 -78.39271 11032 ft 275 kts 264°
2026-04-27 23:15 -0.01244 -78.41203 11343 ft 290 kts 258°
2026-04-27 23:16 -0.01645 -78.43211 11664 ft 304 kts 258°
2026-04-27 23:16 -0.02039 -78.45330 12234 ft 310 kts 259°
2026-04-27 23:16 -0.02410 -78.47456 12906 ft 312 kts 260°
2026-04-27 23:16 -0.02768 -78.49593 13555 ft 316 kts 260°
2026-04-27 23:17 -0.03119 -78.51736 14200 ft 319 kts 260°
2026-04-27 23:17 -0.03478 -78.53946 14867 ft 323 kts 260°
2026-04-27 23:17 -0.03833 -78.56135 15530 ft 326 kts 260°
2026-04-27 23:17 -0.04271 -78.58355 16179 ft 329 kts 252°
2026-04-27 23:18 -0.05201 -78.60345 16779 ft 332 kts 235°
2026-04-27 23:18 -0.06740 -78.62137 17436 ft 334 kts 224°
2026-04-27 23:18 -0.08407 -78.63752 18074 ft 337 kts 223°
2026-04-27 23:18 -0.10113 -78.65369 18693 ft 341 kts 223°
2026-04-27 23:19 -0.11758 -78.66950 19279 ft 345 kts 223°
2026-04-27 23:19 -0.13391 -78.68536 19848 ft 348 kts 223°
2026-04-27 23:19 -0.15116 -78.70219 20435 ft 351 kts 223°
2026-04-27 23:19 -0.16845 -78.71909 21006 ft 355 kts 223°
2026-04-27 23:20 -0.18415 -78.73445 21507 ft 358 kts 224°
2026-04-27 23:20 -0.20232 -78.75223 22073 ft 361 kts 224°
2026-04-27 23:20 -0.22016 -78.76970 22623 ft 364 kts 224°
2026-04-27 23:20 -0.23536 -78.78459 23105 ft 366 kts 224°
2026-04-27 23:21 -0.25547 -78.80428 23692 ft 369 kts 224°
2026-04-27 23:21 -0.27290 -78.82134 24130 ft 371 kts 224°
2026-04-27 23:21 -0.29137 -78.83944 24317 ft 372 kts 224°
2026-04-27 23:21 -0.30989 -78.85757 24319 ft 371 kts 224°
2026-04-27 23:22 -0.32836 -78.87568 24323 ft 371 kts 224°
2026-04-27 23:22 -0.34656 -78.89352 24326 ft 371 kts 224°
2026-04-27 23:22 -0.36504 -78.91162 24331 ft 371 kts 224°
2026-04-27 23:22 -0.38362 -78.92982 24341 ft 379 kts 224°
2026-04-27 23:23 -0.40267 -78.94848 24350 ft 397 kts 224°
2026-04-27 23:23 -0.42295 -78.96835 24361 ft 413 kts 224°
2026-04-27 23:23 -0.44381 -78.98875 24375 ft 428 kts 224°
2026-04-27 23:23 -0.46543 -79.00992 24389 ft 443 kts 224°
2026-04-27 23:24 -0.48804 -79.03207 24407 ft 456 kts 224°
2026-04-27 23:24 -0.51062 -79.05419 24421 ft 469 kts 225°
2026-04-27 23:24 -0.53466 -79.07773 24435 ft 480 kts 225°
2026-04-27 23:24 -0.55907 -79.10094 24441 ft 491 kts 222°
2026-04-27 23:25 -0.58611 -79.12238 24448 ft 500 kts 216°
2026-04-27 23:25 -0.61603 -79.14126 24454 ft 506 kts 210°
2026-04-27 23:25 -0.64740 -79.15707 24458 ft 508 kts 206°
2026-04-27 23:25 -0.67933 -79.17196 24459 ft 508 kts 205°
2026-04-27 23:26 -0.71173 -79.18678 24460 ft 508 kts 205°
2026-04-27 23:26 -0.74398 -79.20154 24461 ft 508 kts 205°
2026-04-27 23:26 -0.77593 -79.21622 24461 ft 508 kts 205°
2026-04-27 23:26 -0.80796 -79.23102 24461 ft 508 kts 206°
2026-04-27 23:27 -0.84012 -79.24593 24461 ft 508 kts 206°
2026-04-27 23:27 -0.87197 -79.26071 24461 ft 508 kts 206°
2026-04-27 23:27 -0.90393 -79.27557 24461 ft 508 kts 206°
2026-04-27 23:27 -0.93586 -79.29041 24461 ft 508 kts 206°
2026-04-27 23:28 -0.96818 -79.30543 24461 ft 508 kts 206°
2026-04-27 23:28 -1.00022 -79.32034 24461 ft 508 kts 206°
2026-04-27 23:28 -1.03223 -79.33523 24461 ft 507 kts 205°
2026-04-27 23:28 -1.06391 -79.34997 24461 ft 507 kts 205°
2026-04-27 23:29 -1.09585 -79.36481 24461 ft 507 kts 205°
2026-04-27 23:29 -1.12796 -79.37972 24461 ft 506 kts 205°
2026-04-27 23:29 -1.15961 -79.39435 24461 ft 506 kts 205°
2026-04-27 23:29 -1.19156 -79.40913 24395 ft 499 kts 205°
2026-04-27 23:30 -1.22266 -79.42355 23963 ft 487 kts 205°
2026-04-27 23:30 -1.25327 -79.43777 23342 ft 479 kts 205°
2026-04-27 23:30 -1.28293 -79.45158 22857 ft 469 kts 205°
2026-04-27 23:30 -1.31206 -79.46513 22435 ft 458 kts 205°
2026-04-27 23:31 -1.34051 -79.47839 22040 ft 448 kts 205°
2026-04-27 23:31 -1.36867 -79.49152 21576 ft 439 kts 205°
2026-04-27 23:31 -1.39509 -79.50383 20940 ft 425 kts 205°
2026-04-27 23:31 -1.42095 -79.51588 20175 ft 414 kts 205°
2026-04-27 23:32 -1.44632 -79.52772 19437 ft 405 kts 205°
2026-04-27 23:32 -1.47172 -79.53957 18700 ft 395 kts 205°
2026-04-27 23:32 -1.49606 -79.55090 17991 ft 387 kts 205°
2026-04-27 23:32 -1.52030 -79.56219 17288 ft 379 kts 205°
2026-04-27 23:33 -1.54394 -79.57317 16603 ft 371 kts 205°
2026-04-27 23:33 -1.56700 -79.58385 16061 ft 360 kts 205°
2026-04-27 23:33 -1.58934 -79.59421 15587 ft 349 kts 205°
2026-04-27 23:33 -1.61119 -79.60435 15010 ft 342 kts 205°
2026-04-27 23:34 -1.63273 -79.61437 14371 ft 338 kts 205°
2026-04-27 23:34 -1.65369 -79.62411 13715 ft 335 kts 205°
2026-04-27 23:34 -1.67479 -79.63393 13131 ft 331 kts 205°
2026-04-27 23:34 -1.69514 -79.64339 12386 ft 326 kts 205°
2026-04-27 23:35 -1.71561 -79.65293 11534 ft 324 kts 205°
2026-04-27 23:35 -1.73562 -79.66237 10743 ft 320 kts 205°
2026-04-27 23:35 -1.75528 -79.67165 10182 ft 309 kts 205°
2026-04-27 23:35 -1.77446 -79.68066 9611 ft 300 kts 204°
2026-04-27 23:36 -1.79333 -79.68948 8982 ft 294 kts 204°
2026-04-27 23:36 -1.81157 -79.69798 8333 ft 293 kts 204°
2026-04-27 23:36 -1.83082 -79.70480 7701 ft 301 kts 187°
2026-04-27 23:36 -1.85174 -79.70365 7070 ft 306 kts 162°
2026-04-27 23:37 -1.87109 -79.69454 6446 ft 311 kts 147°
2026-04-27 23:37 -1.88776 -79.68092 5808 ft 315 kts 128°
2026-04-27 23:37 -1.89789 -79.66154 5174 ft 319 kts 105°
2026-04-27 23:37 -1.89927 -79.63921 4531 ft 324 kts 81°
2026-04-27 23:38 -1.89148 -79.61819 3909 ft 321 kts 57°
2026-04-27 23:38 -1.87617 -79.60297 3565 ft 305 kts 32°
2026-04-27 23:38 -1.85736 -79.59461 3520 ft 280 kts 21°
2026-04-27 23:38 -1.83989 -79.58855 3511 ft 257 kts 20°
2026-04-27 23:39 -1.82284 -79.58607 3489 ft 237 kts 352°
2026-04-27 23:39 -1.80847 -79.59219 3485 ft 222 kts 319°
2026-04-27 23:39 -1.80007 -79.60497 3499 ft 221 kts 284°
2026-04-27 23:39 -1.79996 -79.62029 3517 ft 220 kts 256°
2026-04-27 23:40 -1.80449 -79.63490 3519 ft 220 kts 249°
2026-04-27 23:40 -1.80995 -79.64928 3513 ft 220 kts 247°
2026-04-27 23:40 -1.81773 -79.66245 3505 ft 218 kts 224°
2026-04-27 23:40 -1.82916 -79.67210 3517 ft 217 kts 215°
2026-04-27 23:41 -1.84183 -79.68130 3520 ft 230 kts 214°
2026-04-27 23:41 -1.85482 -79.69104 3512 ft 233 kts 216°
2026-04-27 23:41 -1.86758 -79.70109 3509 ft 233 kts 217°
2026-04-27 23:41 -1.88024 -79.71139 3511 ft 236 kts 218°
2026-04-27 23:42 -1.89299 -79.72193 3509 ft 239 kts 218°
2026-04-27 23:42 -1.90570 -79.73251 3506 ft 236 kts 218°
2026-04-27 23:42 -1.91812 -79.74290 3506 ft 229 kts 218°
2026-04-27 23:42 -1.93054 -79.75278 3495 ft 228 kts 214°
2026-04-27 23:43 -1.94405 -79.76140 3319 ft 227 kts 209°
2026-04-27 23:43 -1.95770 -79.76932 3159 ft 226 kts 208°
2026-04-27 23:43 -1.97131 -79.77714 3006 ft 225 kts 208°
2026-04-27 23:43 -1.98498 -79.78503 2855 ft 225 kts 208°
2026-04-27 23:44 -1.99844 -79.79283 2707 ft 221 kts 209°
2026-04-27 23:44 -2.01155 -79.80046 2535 ft 219 kts 209°
2026-04-27 23:44 -2.02497 -79.80827 2134 ft 222 kts 209°
2026-04-27 23:44 -2.03801 -79.81570 2026 ft 204 kts 208°
2026-04-27 23:45 -2.04951 -79.82207 2154 ft 173 kts 207°
2026-04-27 23:45 -2.05933 -79.82739 2035 ft 152 kts 207°
2026-04-27 23:45 -2.06820 -79.83231 1817 ft 139 kts 207°
2026-04-27 23:45 -2.07638 -79.83697 1636 ft 135 kts 208°
2026-04-27 23:46 -2.08430 -79.84152 1466 ft 134 kts 208°
2026-04-27 23:46 -2.09213 -79.84604 1298 ft 134 kts 208°
2026-04-27 23:46 -2.10001 -79.85059 1129 ft 133 kts 208°
2026-04-27 23:46 -2.10784 -79.85506 959 ft 133 kts 208°
2026-04-27 23:47 -2.11556 -79.85950 792 ft 133 kts 208°
2026-04-27 23:47 -2.12355 -79.86411 617 ft 132 kts 208°
2026-04-27 23:47 -2.13116 -79.86852 451 ft 132 kts 208°
2026-04-27 23:47 -2.13866 -79.87290 277 ft 132 kts 209°
2026-04-27 23:48 -2.14591 -79.87711 88 ft 130 kts 208°
2026-04-27 23:48 -2.15330 -79.88133 28 ft 112 kts 208°
2026-04-27 23:48 -2.15745 -79.88366 28 ft 76 kts 211°
2026-04-27 23:48 -2.16017 -79.88532 28 ft 18 kts 247°
2026-04-27 23:49 -2.15966 -79.88602 27 ft 14 kts 28°
2026-04-27 23:49 -2.15886 -79.88551 27 ft 14 kts 26°
2026-04-27 23:49 -2.15799 -79.88507 27 ft 14 kts 29°
2026-04-27 23:49 -2.15711 -79.88457 27 ft 15 kts 30°
2026-04-27 23:50 -2.15623 -79.88405 27 ft 15 kts 30°
2026-04-27 23:50 -2.15502 -79.88335 27 ft 28 kts 30°
2026-04-27 23:50 -2.15346 -79.88245 27 ft 27 kts 30°
2026-04-27 23:50 -2.15247 -79.88236 27 ft 12 kts 333°
2026-04-27 23:51 -2.15168 -79.88223 27 ft 12 kts 27°
2026-04-27 23:51 -2.15055 -79.88159 27 ft 27 kts 30°
2026-04-27 23:51 -2.14882 -79.88065 27 ft 26 kts
2026-04-27 23:51 -2.14798 -79.88133 27 ft 12 kts 302°
2026-04-27 23:52 -2.14805 -79.88210 27 ft 13 kts 215°
2026-04-27 23:52 -2.14914 -79.88274 27 ft 25 kts 210°
2026-04-27 23:52 -2.15045 -79.88348 27 ft 11 kts 211°
2026-04-27 23:52 -2.15068 -79.88382 27 ft 4 kts 257°
2026-04-27 23:53 -2.15062 -79.88409 27 ft 3 kts 297°
2026-04-27 23:53 -2.15055 -79.88421 27 ft 0 kts 300°
2026-04-27 23:53 -2.15054 -79.88421 27 ft 0 kts 300°